Time,TemperatureF,DewpointF,PressureIn,WindDirection,WindDirectionDegrees,WindSpeedMPH,WindSpeedGustMPH,Humidity,HourlyPrecipIn,Conditions,Clouds,dailyrainin,SoftwareType,DateUTC
2013-05-28 00:05:00,63.0,63.0,29.89,East,80,0.0,-999.0,98,-99.99,,,0.40,weatherlink.com 1.10,2013-05-28 04:05:00,
2013-05-28 00:20:00,63.1,63.0,29.88,East,80,1.0,-999.0,98,-99.99,,,0.40,weatherlink.com 1.10,2013-05-28 04:20:00,
2013-05-28 00:35:00,63.3,63.0,29.89,SSW,201,0.0,-999.0,98,-99.99,,,0.40,weatherlink.com 1.10,2013-05-28 04:35:00,
2013-05-28 00:50:00,63.4,63.0,29.89,SW,215,3.0,-999.0,99,-99.99,,,0.41,weatherlink.com 1.10,2013-05-28 04:50:00,
2013-05-28 01:05:00,63.7,64.0,29.89,SSW,193,2.0,-999.0,99,-99.99,,,0.41,weatherlink.com 1.10,2013-05-28 05:05:00,
2013-05-28 01:20:00,64.1,64.0,29.89,SSW,205,7.0,-999.0,98,-99.99,,,0.41,weatherlink.com 1.10,2013-05-28 05:20:00,
2013-05-28 01:35:00,64.3,64.0,29.89,SSW,213,6.0,-999.0,99,-99.99,,,0.00,weatherlink.com 1.10,2013-05-28 05:35:00,
2013-05-28 01:50:00,64.4,64.0,29.89,SSW,194,5.0,-999.0,98,-99.99,,,0.00,weatherlink.com 1.10,2013-05-28 05:50:00,
2013-05-28 02:05:00,64.3,64.0,29.88,SSW,194,1.0,-999.0,98,-99.99,,,0.00,weatherlink.com 1.10,2013-05-28 06:05:00,
2013-05-28 02:20:00,64.0,64.0,29.88,SSW,194,1.0,-999.0,98,-99.99,,,0.00,weatherlink.com 1.10,2013-05-28 06:20:00,
2013-05-28 02:35:00,63.8,63.0,29.88,SSW,194,0.0,-999.0,98,-99.99,,,0.00,weatherlink.com 1.10,2013-05-28 06:35:00,
2013-05-28 02:50:00,63.6,63.0,29.87,SSW,194,0.0,-999.0,98,-99.99,,,0.00,weatherlink.com 1.10,2013-05-28 06:50:00,
2013-05-28 03:05:00,63.6,63.0,29.86,SSW,194,0.0,-999.0,99,-99.99,,,0.00,weatherlink.com 1.10,2013-05-28 07:05:00,
2013-05-28 03:20:00,63.4,63.0,29.86,SSW,194,0.0,-999.0,98,-99.99,,,0.00,weatherlink.com 1.10,2013-05-28 07:20:00,
2013-05-28 03:35:00,63.4,63.0,29.85,SSW,194,1.0,-999.0,99,-99.99,,,0.00,weatherlink.com 1.10,2013-05-28 07:35:00,
2013-05-28 03:51:00,63.3,63.0,29.85,SSW,194,1.0,-999.0,98,-99.99,,,0.00,weatherlink.com 1.10,2013-05-28 07:51:00,
2013-05-28 04:06:00,63.4,63.0,29.84,SSW,192,5.0,-999.0,98,-99.99,,,0.00,weatherlink.com 1.10,2013-05-28 08:06:00,
2013-05-28 04:21:00,63.9,63.0,29.84,SSW,204,4.0,-999.0,98,-99.99,,,0.00,weatherlink.com 1.10,2013-05-28 08:21:00,
2013-05-28 04:36:00,64.5,63.0,29.84,SSW,192,5.0,-999.0,96,-99.99,,,0.00,weatherlink.com 1.10,2013-05-28 08:36:00,
2013-05-28 04:51:00,64.9,63.0,29.85,SSW,200,9.0,-999.0,94,-99.99,,,0.00,weatherlink.com 1.10,2013-05-28 08:51:00,
2013-05-28 05:06:00,64.8,63.0,29.85,SSW,196,6.0,-999.0,93,-99.99,,,0.00,weatherlink.com 1.10,2013-05-28 09:06:00,
2013-05-28 05:21:00,64.9,63.0,29.84,SSW,192,5.0,-999.0,93,-99.99,,,0.00,weatherlink.com 1.10,2013-05-28 09:21:00,
2013-05-28 05:36:00,65.3,63.0,29.84,SSW,192,6.0,-999.0,92,-99.99,,,0.00,weatherlink.com 1.10,2013-05-28 09:36:00,
2013-05-28 05:51:00,65.6,63.0,29.84,South,188,7.0,-999.0,91,-99.99,,,0.00,weatherlink.com 1.10,2013-05-28 09:51:00,
2013-05-28 06:06:00,65.6,63.0,29.84,SSW,196,3.0,-999.0,91,-99.99,,,0.00,weatherlink.com 1.10,2013-05-28 10:06:00,
2013-05-28 06:21:00,65.5,63.0,29.85,SSW,195,6.0,-999.0,91,-99.99,,,0.00,weatherlink.com 1.10,2013-05-28 10:21:00,
2013-05-28 06:36:00,65.9,63.0,29.86,South,178,9.0,-999.0,90,-99.99,,,0.00,weatherlink.com 1.10,2013-05-28 10:36:00,
2013-05-28 06:51:00,65.8,63.0,29.86,SSW,194,4.0,-999.0,91,-99.99,,,0.00,weatherlink.com 1.10,2013-05-28 10:51:00,
2013-05-28 07:06:00,66.2,63.0,29.86,SSW,194,8.0,-999.0,90,-99.99,,,0.00,weatherlink.com 1.10,2013-05-28 11:06:00,
2013-05-28 07:21:00,66.3,63.0,29.87,SSW,198,10.0,-999.0,90,-99.99,,,0.00,weatherlink.com 1.10,2013-05-28 11:21:00,
2013-05-28 07:36:00,66.7,64.0,29.88,SSW,209,10.0,-999.0,90,-99.99,,,0.00,weatherlink.com 1.10,2013-05-28 11:36:00,
2013-05-28 07:51:00,67.1,64.0,29.88,SSW,198,11.0,-999.0,89,-99.99,,,0.00,weatherlink.com 1.10,2013-05-28 11:51:00,
2013-05-28 08:06:00,67.6,64.0,29.87,South,190,9.0,-999.0,88,-99.99,,,0.00,weatherlink.com 1.10,2013-05-28 12:06:00,
2013-05-28 08:21:00,68.1,65.0,29.87,South,189,9.0,-999.0,88,-99.99,,,0.00,weatherlink.com 1.10,2013-05-28 12:21:00,
2013-05-28 08:36:00,68.5,65.0,29.86,SSW,196,10.0,-999.0,87,-99.99,,,0.00,weatherlink.com 1.10,2013-05-28 12:36:00,
2013-05-28 08:51:00,68.8,65.0,29.85,South,190,8.0,-999.0,87,-99.99,,,0.00,weatherlink.com 1.10,2013-05-28 12:51:00,
2013-05-28 09:06:00,69.4,65.0,29.85,South,184,6.0,-999.0,87,-99.99,,,0.00,weatherlink.com 1.10,2013-05-28 13:06:00,
2013-05-28 09:21:00,69.9,66.0,29.85,SSW,200,10.0,-999.0,87,-99.99,,,0.00,weatherlink.com 1.10,2013-05-28 13:21:00,
2013-05-28 09:36:00,70.2,66.0,29.86,South,177,9.0,-999.0,86,-99.99,,,0.00,weatherlink.com 1.10,2013-05-28 13:36:00,
2013-05-28 09:51:00,70.4,66.0,29.86,South,184,13.0,-999.0,87,-99.99,,,0.00,weatherlink.com 1.10,2013-05-28 13:51:00,
2013-05-28 10:06:00,70.8,67.0,29.86,SSW,194,12.0,-999.0,86,-99.99,,,0.00,weatherlink.com 1.10,2013-05-28 14:06:00,
2013-05-28 10:21:00,71.3,67.0,29.86,SSW,200,12.0,-999.0,86,-99.99,,,0.00,weatherlink.com 1.10,2013-05-28 14:21:00,
2013-05-28 10:36:00,71.6,67.0,29.86,SSW,209,12.0,-999.0,86,-99.99,,,0.00,weatherlink.com 1.10,2013-05-28 14:36:00,
2013-05-28 10:51:00,72.1,67.0,29.87,SW,222,8.0,-999.0,85,-99.99,,,0.00,weatherlink.com 1.10,2013-05-28 14:51:00,
2013-05-28 11:06:00,71.9,67.0,29.86,SSW,201,12.0,-999.0,85,-99.99,,,0.00,weatherlink.com 1.10,2013-05-28 15:06:00,
2013-05-28 11:21:00,71.8,68.0,29.86,SSW,201,11.0,-999.0,86,-99.99,,,0.00,weatherlink.com 1.10,2013-05-28 15:21:00,
2013-05-28 11:36:00,72.1,68.0,29.86,SSW,209,7.0,-999.0,86,-99.99,,,0.00,weatherlink.com 1.10,2013-05-28 15:36:00,
2013-05-28 11:51:00,72.7,68.0,29.86,SW,221,11.0,-999.0,85,-99.99,,,0.00,weatherlink.com 1.10,2013-05-28 15:51:00,
2013-05-28 12:06:00,73.1,68.0,29.85,SSW,207,12.0,-999.0,85,-99.99,,,0.00,weatherlink.com 1.10,2013-05-28 16:06:00,
2013-05-28 12:21:00,73.9,69.0,29.83,South,189,11.0,-999.0,84,-99.99,,,0.00,weatherlink.com 1.10,2013-05-28 16:21:00,
2013-05-28 12:36:00,74.7,70.0,29.82,SSW,194,13.0,-999.0,84,-99.99,,,0.00,weatherlink.com 1.10,2013-05-28 16:36:00,
2013-05-28 12:51:00,75.6,70.0,29.84,SW,222,12.0,-999.0,83,-99.99,,,0.00,weatherlink.com 1.10,2013-05-28 16:51:00,
2013-05-28 13:06:00,75.4,70.0,29.84,SSW,201,13.0,-999.0,83,-99.99,,,0.00,weatherlink.com 1.10,2013-05-28 17:06:00,
2013-05-28 13:21:00,75.5,70.0,29.83,SSW,209,13.0,-999.0,82,-99.99,,,0.00,weatherlink.com 1.10,2013-05-28 17:21:00,
2013-05-28 13:37:00,75.9,70.0,29.83,SSW,213,8.0,-999.0,82,-99.99,,,0.00,weatherlink.com 1.10,2013-05-28 17:37:00,
2013-05-28 13:52:00,76.0,70.0,29.82,South,191,13.0,-999.0,81,-99.99,,,0.00,weatherlink.com 1.10,2013-05-28 17:52:00,
2013-05-28 14:07:00,76.4,71.0,29.82,SSW,209,12.0,-999.0,83,-99.99,,,0.00,weatherlink.com 1.10,2013-05-28 18:07:00,
2013-05-28 14:22:00,77.4,70.0,29.81,SSW,211,17.0,-999.0,78,-99.99,,,0.00,weatherlink.com 1.10,2013-05-28 18:22:00,
2013-05-28 14:37:00,78.4,71.0,29.81,SSW,200,14.0,-999.0,77,-99.99,,,0.00,weatherlink.com 1.10,2013-05-28 18:37:00,
2013-05-28 14:52:00,77.9,70.0,29.81,SW,227,17.0,-999.0,76,-99.99,,,0.00,weatherlink.com 1.10,2013-05-28 18:52:00,
2013-05-28 15:07:00,78.1,70.0,29.81,SSW,206,15.0,-999.0,75,-99.99,,,0.00,weatherlink.com 1.10,2013-05-28 19:07:00,
2013-05-28 15:22:00,78.4,71.0,29.82,SSW,198,9.0,-999.0,77,-99.99,,,0.00,weatherlink.com 1.10,2013-05-28 19:22:00,
2013-05-28 15:37:00,78.5,70.0,29.81,SW,216,9.0,-999.0,75,-99.99,,,0.00,weatherlink.com 1.10,2013-05-28 19:37:00,
2013-05-28 15:52:00,79.2,71.0,29.81,SW,223,10.0,-999.0,76,-99.99,,,0.00,weatherlink.com 1.10,2013-05-28 19:52:00,
2013-05-28 16:07:00,78.7,69.0,29.81,SSW,201,13.0,-999.0,73,-99.99,,,0.00,weatherlink.com 1.10,2013-05-28 20:07:00,
2013-05-28 16:22:00,78.4,70.0,29.82,SW,219,6.0,-999.0,76,-99.99,,,0.00,weatherlink.com 1.10,2013-05-28 20:22:00,
2013-05-28 16:37:00,77.8,70.0,29.82,SW,219,10.0,-999.0,77,-99.99,,,0.00,weatherlink.com 1.10,2013-05-28 20:37:00,
2013-05-28 16:52:00,78.3,70.0,29.82,SSW,202,11.0,-999.0,76,-99.99,,,0.00,weatherlink.com 1.10,2013-05-28 20:52:00,
2013-05-28 17:07:00,78.9,70.0,29.82,SSW,207,12.0,-999.0,75,-99.99,,,0.00,weatherlink.com 1.10,2013-05-28 21:07:00,
2013-05-28 17:22:00,79.7,71.0,29.81,SSW,211,8.0,-999.0,74,-99.99,,,0.00,weatherlink.com 1.10,2013-05-28 21:22:00,
2013-05-28 17:37:00,78.8,70.0,29.81,SSW,208,8.0,-999.0,74,-99.99,,,0.00,weatherlink.com 1.10,2013-05-28 21:37:00,
2013-05-28 17:52:00,78.9,70.0,29.82,SW,218,13.0,-999.0,74,-99.99,,,0.00,weatherlink.com 1.10,2013-05-28 21:52:00,
2013-05-28 18:07:00,79.7,71.0,29.81,SSW,194,7.0,-999.0,75,-99.99,,,0.00,weatherlink.com 1.10,2013-05-28 22:07:00,
2013-05-28 18:22:00,80.3,71.0,29.81,SSW,193,9.0,-999.0,74,-99.99,,,0.00,weatherlink.com 1.10,2013-05-28 22:22:00,
2013-05-28 18:37:00,79.6,71.0,29.82,SSW,210,6.0,-999.0,74,-99.99,,,0.00,weatherlink.com 1.10,2013-05-28 22:37:00,
2013-05-28 18:52:00,79.5,71.0,29.82,SSW,213,4.0,-999.0,76,-99.99,,,0.00,weatherlink.com 1.10,2013-05-28 22:52:00,
2013-05-28 19:07:00,79.9,71.0,29.82,SSW,210,5.0,-999.0,73,-99.99,,,0.00,weatherlink.com 1.10,2013-05-28 23:07:00,
2013-05-28 19:22:00,78.8,69.0,29.82,SSW,211,13.0,-999.0,73,-99.99,,,0.00,weatherlink.com 1.10,2013-05-28 23:22:00,
2013-05-28 19:37:00,79.3,69.0,29.82,SSE,166,8.0,-999.0,71,-99.99,,,0.00,weatherlink.com 1.10,2013-05-28 23:37:00,
2013-05-28 19:52:00,79.1,69.0,29.81,SSW,202,6.0,-999.0,70,-99.99,,,0.00,weatherlink.com 1.10,2013-05-28 23:52:00,
2013-05-28 20:07:00,78.5,69.0,29.80,South,189,8.0,-999.0,72,-99.99,,,0.00,weatherlink.com 1.10,2013-05-29 00:07:00,
2013-05-28 20:22:00,78.0,68.0,29.80,SSW,196,2.0,-999.0,72,-99.99,,,0.00,weatherlink.com 1.10,2013-05-29 00:22:00,
2013-05-28 20:37:00,77.3,68.0,29.79,South,189,7.0,-999.0,72,-99.99,,,0.00,weatherlink.com 1.10,2013-05-29 00:37:00,
2013-05-28 20:52:00,76.2,68.0,29.79,SSW,198,3.0,-999.0,75,-99.99,,,0.00,weatherlink.com 1.10,2013-05-29 00:52:00,
2013-05-28 21:07:00,75.2,68.0,29.80,SSW,201,3.0,-999.0,77,-99.99,,,0.00,weatherlink.com 1.10,2013-05-29 01:07:00,
2013-05-28 21:22:00,75.0,68.0,29.81,SSW,201,4.0,-999.0,78,-99.99,,,0.00,weatherlink.com 1.10,2013-05-29 01:22:00,
2013-05-28 21:37:00,74.8,68.0,29.80,SSW,204,7.0,-999.0,78,-99.99,,,0.00,weatherlink.com 1.10,2013-05-29 01:37:00,
2013-05-28 21:52:00,74.5,68.0,29.80,SSW,192,7.0,-999.0,79,-99.99,,,0.00,weatherlink.com 1.10,2013-05-29 01:52:00,
2013-05-28 22:07:00,74.4,68.0,29.81,South,190,2.0,-999.0,79,-99.99,,,0.00,weatherlink.com 1.10,2013-05-29 02:07:00,
2013-05-28 22:22:00,74.0,67.0,29.82,SSW,199,4.0,-999.0,79,-99.99,,,0.00,weatherlink.com 1.10,2013-05-29 02:22:00,
2013-05-28 22:37:00,74.2,68.0,29.84,SSW,196,2.0,-999.0,80,-99.99,,,0.00,weatherlink.com 1.10,2013-05-29 02:37:00,
2013-05-28 22:52:00,73.6,67.0,29.84,SSW,196,5.0,-999.0,81,-99.99,,,0.00,weatherlink.com 1.10,2013-05-29 02:52:00,
2013-05-28 23:07:00,74.1,68.0,29.85,South,186,6.0,-999.0,80,-99.99,,,0.00,weatherlink.com 1.10,2013-05-29 03:07:00,
2013-05-28 23:22:00,73.8,68.0,29.86,SSW,204,3.0,-999.0,81,-99.99,,,0.00,weatherlink.com 1.10,2013-05-29 03:22:00,
2013-05-28 23:37:00,73.7,68.0,29.86,SSW,200,5.0,-999.0,82,-99.99,,,0.00,weatherlink.com 1.10,2013-05-29 03:37:00,
2013-05-28 23:52:00,73.4,68.0,29.86,SSW,200,1.0,-999.0,82,-99.99,,,0.00,weatherlink.com 1.10,2013-05-29 03:52:00,